TimeEDT,TemperatureF,Dew PointF,Humidity,Sea Level PressureIn,VisibilityMPH,Wind Direction,Wind SpeedMPH,Gust SpeedMPH,PrecipitationIn,Events,Conditions,WindDirDegrees,DateUTC
12:48 AM,57.2,53.6,88,29.55,10.0,Variable,6.9,-,0.03,Rain,Light Rain,0,2013-06-14 04:48:00
12:53 AM,57.0,54.0,89,29.56,10.0,North,6.9,-,0.04,Rain,Light Rain,10,2013-06-14 04:53:00
1:53 AM,55.9,53.1,90,29.58,8.0,North,9.2,17.3,0.04,Rain,Light Rain,10,2013-06-14 05:53:00
2:09 AM,55.4,53.6,94,29.59,10.0,North,8.1,-,0.00,Rain,Light Rain,360,2013-06-14 06:09:00
2:53 AM,55.9,53.1,90,29.60,10.0,North,8.1,-,0.03,Rain,Light Rain,350,2013-06-14 06:53:00
3:53 AM,55.9,52.0,87,29.63,10.0,NNW,8.1,-,0.01,,Overcast,340,2013-06-14 07:53:00
4:53 AM,55.0,51.1,86,29.65,10.0,North,11.5,19.6,N/A,,Overcast,360,2013-06-14 08:53:00
5:53 AM,55.0,50.0,83,29.68,10.0,North,9.2,-,N/A,,Overcast,360,2013-06-14 09:53:00
6:53 AM,55.9,50.0,80,29.70,10.0,North,8.1,-,N/A,,Overcast,10,2013-06-14 10:53:00
7:53 AM,57.0,48.9,74,29.71,10.0,North,8.1,-,N/A,,Overcast,360,2013-06-14 11:53:00
8:53 AM,57.9,48.9,72,29.75,10.0,NNW,9.2,-,N/A,,Overcast,340,2013-06-14 12:53:00
9:53 AM,57.9,50.0,75,29.78,10.0,NNW,4.6,-,0.00,,Overcast,340,2013-06-14 13:53:00
10:53 AM,61.0,51.1,70,29.80,10.0,NW,4.6,-,0.00,,Mostly Cloudy,320,2013-06-14 14:53:00
11:53 AM,66.9,48.9,52,29.80,10.0,North,6.9,-,N/A,,Mostly Cloudy,360,2013-06-14 15:53:00
12:53 PM,69.1,52.0,54,29.79,10.0,Calm,Calm,-,N/A,,Mostly Cloudy,0,2013-06-14 16:53:00
1:53 PM,71.1,55.0,57,29.78,10.0,Calm,Calm,-,N/A,,Mostly Cloudy,0,2013-06-14 17:53:00
2:53 PM,77.0,54.0,45,29.76,10.0,WNW,10.4,17.3,N/A,,Scattered Clouds,300,2013-06-14 18:53:00
3:53 PM,71.1,59.0,66,29.77,10.0,NE,6.9,-,0.00,Rain,Light Rain,40,2013-06-14 19:53:00
4:53 PM,71.1,57.0,61,29.78,10.0,Variable,4.6,-,0.00,,Mostly Cloudy,0,2013-06-14 20:53:00
5:53 PM,61.0,59.0,93,29.81,-9999.0,Calm,Calm,-,0.06,,Unknown,0,2013-06-14 21:53:00
6:53 PM,61.0,60.1,97,29.84,5.0,Variable,3.5,-,0.05,Rain,Light Rain,0,2013-06-14 22:53:00
7:53 PM,62.1,60.1,93,29.85,10.0,North,3.5,-,0.00,,Overcast,350,2013-06-14 23:53:00
8:53 PM,60.1,59.0,96,29.84,10.0,WNW,3.5,-,0.00,,Clear,300,2013-06-15 00:53:00
9:38 PM,57.2,57.2,100,29.86,1.5,Calm,Calm,-,N/A,,Partly Cloudy,0,2013-06-15 01:38:00
9:43 PM,57.2,57.2,100,29.87,0.8,Calm,Calm,-,N/A,,Mist,0,2013-06-15 01:43:00
9:53 PM,57.9,57.0,97,29.87,0.5,Calm,Calm,-,N/A,Fog,Fog,0,2013-06-15 01:53:00
10:01 PM,57.2,55.4,94,29.87,0.2,Calm,Calm,-,N/A,Fog,Fog,0,2013-06-15 02:01:00
10:12 PM,57.2,57.2,100,29.88,1.0,Calm,Calm,-,N/A,,Mist,0,2013-06-15 02:12:00
10:26 PM,57.2,55.4,94,29.88,0.8,Calm,Calm,-,N/A,,Mist,0,2013-06-15 02:26:00
10:53 PM,55.9,55.0,97,29.89,1.0,Calm,Calm,-,N/A,,Mist,0,2013-06-15 02:53:00
11:02 PM,55.4,55.4,100,29.89,0.5,Calm,Calm,-,N/A,Fog,Fog,0,2013-06-15 03:02:00
11:10 PM,55.4,55.4,100,29.89,0.2,Calm,Calm,-,N/A,Fog,Fog,0,2013-06-15 03:10:00
11:18 PM,55.4,55.4,100,29.89,0.8,Calm,Calm,-,N/A,,Mist,0,2013-06-15 03:18:00
11:25 PM,55.4,55.4,100,29.89,1.5,Calm,Calm,-,N/A,,Mostly Cloudy,0,2013-06-15 03:25:00
11:39 PM,55.4,53.6,94,29.90,0.5,Calm,Calm,-,N/A,Fog,Fog,0,2013-06-15 03:39:00
11:53 PM,55.0,54.0,96,29.90,0.5,Calm,Calm,-,N/A,Fog,Fog,0,2013-06-15 03:53:00